Location: Ostrava
(49.8330°N, 18.2830°E)
Time: 05:02:17
(UTC+02:00)

ISS - Pass Details

Date: 18 May 2021
Orbit: 417 x 422 km, 51.6° (Epoch: 13 June)

Event Time Altitude Azimuth Distance (km) Brightness Sun altitude
Rises 21:16:48 0° 236° (SW) 2,355 0.2 -6.8°
Reaches altitude 10° 21:18:55 10° 232° (SW) 1,495 -0.8 -7.1°
Maximum altitude 21:22:12 54° 154° (SSE) 519 -3.6 -7.5°
Drops below altitude 10° 21:25:30 10° 76° (ENE) 1,504 -1.3 -7.9°
Sets 21:27:38 0° 72° (ENE) 2,372 -0.2 -8.1°
